Wind_Speed
33 31 32 34 34 32 31 31 29 28 26 24 23 22 19 17 17 15 13 14 17 26 27 11 11 16 15 14 20 16 19 9 10 10 18 15 13 11 13 11 18 22 11 16 23 13 6 2 18 27 21 16 21 19
30 32 32 31 32 32 31 30 29 28 27 25 22 19 17 16 16 17 14 15 17 22 23 24 20 15 17 13 17 18 20 22 10 10 12 5 13 11 14 7 15 21 20 20 16 8 10 6 9 21 21 26 24 17
27 30 32 33 34 33 32 31 29 28 27 25 23 20 18 16 14 13 12 14 18 24 23 9 14 11 16 14 10 20 14 13 14 18 19 14 12 14 17 17 12 30 27 16 20 22 18 3 6 14 21 21 22 22
28 30 31 32 32 32 32 31 31 30 28 25 24 22 20 18 16 15 13 16 19 21 28 11 11 16 15 17 16 15 4 7 6 5 16 23 11 14 8 9 15 23 26 14 23 33 15 10 10 13 10 15 17 21
30 32 30 30 31 31 33 33 32 31 29 26 23 22 21 18 17 15 13 11 12 14 25 21 3 3 6 10 11 11 9 11 16 20 16 22 17 14 11 8 15 12 24 10 16 38 13 7 14 14 16 14 17 20
29 29 29 29 30 31 32 33 34 31 28 27 25 23 20 18 17 18 14 14 20 20 25 23 9 2 11 12 10 14 11 13 12 15 15 17 10 11 8 1 6 6 15 10 13 33 6 12 23 17 17 15 14 18
25 26 27 30 31 34 34 35 34 32 30 26 24 23 20 18 18 17 15 20 25 24 26 18 8 6 2 6 5 7 7 6 11 12 20 22 18 17 10 5 5 1 9 14 22 20 16 14 13 18 16 24 16 16
24 24 27 30 31 33 34 34 33 30 30 25 25 25 23 21 22 21 18 15 16 15 14 7 9 7 3 3 6 8 10 8 15 18 19 20 20 3 3 7 7 8 20 20 25 26 20 17 18 21 21 14 14 22
23 24 25 28 32 33 34 31 27 26 30 33 27 24 23 20 22 22 19 14 17 9 7 8 12 10 9 13 12 15 17 18 17 17 17 7 4 0 7 6 6 23 18 32 31 23 20 19 20 19 23 17 8 8
22 23 25 28 31 32 29 28 27 25 28 31 24 24 18 21 20 21 14 11 11 8 9 13 14 14 12 6 11 10 5 7 5 2 1 3 4 10 1 8 1 27 20 19 20 24 22 19 17 14 13 14 8 4
21 22 26 28 30 31 26 25 28 28 23 27 25 20 27 19 16 15 9 7 8 8 10 18 17 13 5 5 7 4 1 3 1 4 4 7 17 17 7 13 10 22 23 22 13 21 21 19 14 11 8 5 4 2
23 24 24 26 28 29 23 20 26 24 22 24 28 24 24 19 14 9 13 18 9 9 17 15 15 12 8 4 4 4 3 4 5 8 5 7 18 23 15 21 22 24 22 29 20 24 21 20 18 13 9 3 1 1
23 23 23 25 26 25 18 18 22 22 20 21 29 26 16 18 22 13 23 26 34 34 29 22 14 12 3 4 4 10 9 12 10 9 7 18 18 22 23 20 21 18 31 26 24 24 21 18 18 16 18 14 9 8
21 20 20 20 21 21 15 17 16 17 19 20 18 19 21 17 30 37 35 34 27 21 27 22 25 15 15 12 12 8 12 9 7 11 16 19 21 35 29 33 28 24 27 25 24 23 19 18 18 16 16 16 12 11
19 16 15 16 17 16 12 16 19 25 29 22 13 14 29 26 29 31 30 27 19 17 17 15 24 20 15 10 11 9 8 9 16 24 28 25 19 17 21 28 30 31 27 28 30 27 20 20 16 16 14 13 13 13
19 13 13 14 17 16 9 9 26 29 30 27 25 28 30 29 34 31 29 37 28 24 26 29 27 26 29 13 18 16 10 16 25 18 20 18 23 27 25 23 19 20 22 24 23 19 19 20 19 15 15 13 10 8
21 16 14 14 15 14 11 12 27 27 18 20 27 24 22 22 27 27 21 24 30 40 46 39 28 19 12 20 21 29 26 25 23 23 20 19 21 16 17 13 13 12 23 16 18 17 15 11 9 9 9 8 4 9
23 18 15 14 12 10 12 21 25 23 28 25 27 24 26 27 25 28 28 18 26 38 45 44 38 33 30 37 38 29 28 25 25 26 19 24 31 26 21 18 16 23 19 18 13 12 11 12 11 10 8 9 8 4
25 19 16 16 10 7 18 20 22 21 23 24 20 24 27 25 25 24 26 28 33 36 43 36 25 37 29 25 25 25 26 26 27 26 24 24 26 22 18 15 14 9 7 8 5 4 5 6 7 7 7 6 6 8
22 22 19 18 16 17 20 19 22 15 21 18 16 19 24 26 25 26 28 29 30 35 41 40 34 28 26 23 21 21 17 13 18 14 14 15 14 7 8 7 3 1 4 8 9 8 9 10 10 11 13 13 12 13
17 16 17 14 19 25 24 19 17 16 14 15 11 13 19 19 22 26 28 29 34 36 35 26 19 18 15 15 14 13 14 14 12 9 11 11 12 9 4 4 3 9 10 13 13 12 12 10 12 13 14 16 13 13
12 11 10 13 19 21 19 18 16 14 13 12 10 10 11 15 18 19 18 26 29 25 22 20 19 10 7 9 8 5 7 5 3 6 4 2 2 1 4 7 8 12 15 17 19 18 16 13 17 20 21 21 19 18
9 10 7 8 13 10 11 14 15 13 11 5 6 6 6 10 14 14 18 16 15 14 15 14 14 12 7 3 3 9 13 12 10 10 10 9 9 8 8 10 13 13 16 18 20 20 19 21 26 24 19 20 24 25
9 7 7 8 9 9 11 14 16 15 12 6 12 9 9 6 8 16 15 14 14 12 15 16 6 6 8 13 11 13 10 11 15 15 15 14 12 12 14 17 18 18 18 21 24 25 23 22 25 27 21 18 23 26
6 7 4 9 10 11 8 8 12 15 17 9 19 13 11 8 7 10 13 11 12 13 10 7 8 10 12 14 19 23 25 27 22 17 18 21 21 20 18 21 23 24 23 22 25 26 24 20 18 20 24 21 20 24
5 5 4 7 15 11 12 12 14 14 12 13 16 12 7 6 9 11 14 12 9 10 10 10 14 12 15 19 23 27 31 30 28 26 20 17 20 22 22 20 20 23 27 24 21 20 18 17 15 16 17 18 18 17
14 13 9 9 9 11 13 11 11 10 7 8 11 7 6 3 7 12 14 9 8 10 11 11 10 15 20 25 29 30 28 26 28 28 26 23 23 25 26 26 28 29 25 22 19 18 18 17 15 13 14 13 13 15
15 12 18 19 13 12 13 12 15 15 12 9 10 8 5 3 6 16 23 21 18 11 10 18 21 26 28 29 29 26 23 20 18 19 24 27 28 28 28 30 28 22 19 19 19 17 14 12 11 12 13 12 11 13
10 10 12 15 17 18 19 19 16 13 16 17 13 11 10 12 11 22 26 26 24 23 19 19 22 23 27 27 24 22 20 16 14 15 15 17 17 16 14 14 15 15 15 15 16 17 15 13 14 13 12 12 11 12
10 7 4 10 16 17 16 19 17 17 12 14 18 18 17 19 21 24 27 31 31 32 32 30 24 25 26 25 24 23 20 18 17 16 15 14 13 13 13 13 12 10 10 12 13 14 13 14 13 12 11 10 9 9
11 9 9 14 16 19 17 17 17 17 19 20 19 21 21 21 26 24 27 34 36 36 34 29 27 28 27 25 25 24 23 21 19 17 16 15 14 13 12 11 10 8 9 10 11 11 10 11 11 10 9 8 8 8
5 9 10 9 14 15 16 17 17 18 17 17 19 20 21 21 23 28 31 33 36 38 32 28 30 29 27 25 23 21 19 18 17 15 15 15 13 12 11 11 9 9 10 11 11 11 10 10 9 9 8 8 8 9
3 3 7 10 11 10 12 16 16 15 14 15 16 17 19 22 23 28 33 33 37 41 34 29 30 30 28 22 22 21 20 18 16 15 15 14 14 15 13 11 9 9 9 10 11 11 11 11 10 10 9 9 10 11
Wind_Direction
353 353 357 357 358 356 356 355 352 346 342 340 339 335 326 322 316 312 319 292 289 291 302 307 308 295 287 267 297 294 305 300 305 266 223 224 241 254 248 223 194 196 166 171 217 273 245 33 183 206 202 201 206 196
357 359 1 1 359 359 357 356 354 350 348 344 338 340 347 337 323 318 316 300 288 284 295 298 296 286 278 266 267 265 260 271 272 293 310 247 239 246 237 231 210 186 186 186 214 194 333 27 112 150 186 220 210 202
6 8 6 6 5 3 1 357 352 349 347 347 348 345 339 336 331 320 322 305 299 300 315 314 289 274 272 262 252 271 278 292 277 285 284 312 233 246 243 219 194 192 180 214 244 220 328 315 245 158 180 191 206 212
0 358 359 359 358 356 355 356 358 356 349 347 344 342 340 338 335 327 327 319 313 316 307 349 315 276 256 240 242 251 237 256 297 281 293 298 312 256 274 201 192 178 180 185 230 218 315 291 265 216 185 194 207 218
358 356 358 356 355 356 355 354 353 350 351 351 346 343 343 348 350 341 329 331 328 321 302 343 359 163 198 222 239 223 234 238 253 265 278 291 312 312 288 219 219 152 198 209 221 204 250 223 135 170 188 195 203 217
357 360 6 6 2 358 357 356 355 351 346 346 346 347 345 344 346 347 349 342 340 332 324 334 3 124 232 224 229 238 252 244 258 258 270 285 299 310 319 315 242 251 186 172 179 206 232 196 203 205 179 182 194 203
354 356 356 356 359 354 354 352 350 349 347 343 341 339 335 333 341 342 335 332 334 337 329 331 32 44 224 238 243 235 248 301 289 275 262 277 301 298 270 274 208 175 185 197 157 178 197 198 180 163 174 199 237 226
347 346 350 349 353 350 351 351 349 348 350 352 355 351 348 346 344 348 347 342 325 330 318 321 341 325 304 212 192 234 252 260 250 251 267 281 302 256 259 253 257 166 151 172 173 171 192 202 204 156 175 179 225 234
344 348 352 353 351 352 353 355 356 1 359 0 351 342 347 344 332 337 331 330 327 305 284 299 311 301 327 234 239 241 236 229 255 261 277 283 330 68 336 311 76 174 148 167 169 172 189 176 175 209 225 213 197 218
341 343 346 349 352 353 353 356 355 348 344 359 4 13 359 350 342 340 330 327 328 315 308 322 338 336 342 336 240 255 236 246 270 316 210 331 23 56 40 74 147 154 158 159 163 163 166 165 182 192 192 170 132 95
341 341 344 348 352 353 352 348 355 358 3 9 7 2 356 355 339 347 338 338 323 311 322 342 354 345 295 246 260 260 223 262 14 64 24 36 32 39 91 73 89 116 142 146 147 153 141 142 144 161 161 121 134 158
331 334 340 344 351 354 356 4 8 359 3 19 17 20 10 6 360 347 356 357 321 326 325 329 356 356 35 31 15 343 344 58 52 33 40 31 57 63 83 100 99 87 95 116 143 117 118 120 121 126 131 108 110 68
323 327 333 339 347 353 355 6 8 3 20 33 28 14 6 8 10 339 352 353 352 355 4 35 28 31 50 353 337 36 46 44 44 37 42 58 52 81 92 97 108 95 113 104 95 102 103 102 103 99 98 93 98 109
335 331 330 337 350 353 16 21 19 23 37 37 22 18 16 4 11 9 13 9 4 5 9 27 34 33 29 40 38 51 44 60 45 51 66 41 71 73 73 62 68 93 116 98 95 94 89 98 105 108 91 88 89 80
349 339 339 348 356 3 38 39 46 38 48 34 28 23 17 23 27 21 19 21 27 11 46 48 46 47 53 51 33 37 42 39 39 44 69 98 76 73 78 72 71 76 73 76 90 90 91 88 111 109 112 97 99 83
3 356 354 356 3 22 56 57 59 51 45 39 27 12 19 22 20 24 34 41 61 67 83 76 65 55 52 43 48 35 45 46 63 70 77 84 53 77 77 72 85 97 90 87 82 79 82 78 87 99 95 89 88 97
6 6 4 4 12 37 54 50 58 40 28 27 21 16 13 21 22 26 45 48 65 72 74 68 55 48 41 44 59 58 57 72 71 58 74 103 81 92 77 74 70 89 105 97 84 95 87 88 92 121 110 133 122 99
13 10 18 19 25 50 75 71 61 44 41 31 40 39 50 51 54 50 54 66 66 76 76 71 68 58 62 67 68 63 64 68 69 58 75 93 89 88 76 59 72 99 111 93 76 70 70 52 43 60 64 61 45 47
19 23 30 32 43 69 85 71 65 52 45 57 67 63 64 63 62 60 57 60 68 70 72 72 67 58 63 75 74 73 68 66 64 63 71 58 77 75 70 58 51 80 96 66 55 14 4 9 12 349 325 306 285 296
21 29 42 58 63 79 79 75 72 73 68 72 62 59 65 59 57 56 56 57 62 65 63 65 64 63 66 68 73 78 68 77 78 80 96 107 110 118 117 99 63 333 300 321 332 338 328 327 322 310 298 288 286 290
26 41 48 63 68 69 65 67 75 69 73 77 68 59 64 54 46 44 49 50 54 56 56 61 68 67 61 66 75 81 74 72 62 63 67 71 80 94 131 155 244 265 298 316 329 345 342 353 358 351 325 309 295 281
18 32 54 60 66 66 63 62 60 60 57 55 50 44 53 44 44 49 46 46 46 41 32 34 42 53 59 57 51 34 50 61 17 329 309 297 257 256 264 295 300 308 312 319 329 334 335 325 330 334 328 318 306 297
12 14 18 50 48 41 30 37 24 19 12 6 37 29 42 45 49 35 55 44 42 28 16 10 5 8 26 43 315 291 302 309 305 299 306 303 300 271 251 263 274 282 291 291 294 299 302 306 308 308 305 298 296 291
10 12 33 23 22 4 4 11 20 13 351 313 32 40 4 317 41 27 28 13 9 354 345 353 22 13 357 339 357 20 5 331 315 312 312 307 302 291 288 292 295 297 300 302 302 302 300 298 295 295 289 272 270 274
32 39 28 11 358 347 22 0 355 14 11 7 22 31 48 54 41 9 1 1 354 353 19 39 16 6 355 338 353 350 338 338 336 328 312 303 305 306 305 307 307 307 311 311 308 305 304 302 292 283 282 281 274 273
11 10 30 24 52 53 36 28 13 5 357 20 15 32 32 44 37 20 9 13 21 15 22 9 11 337 329 326 331 332 330 328 325 323 317 304 298 301 308 313 314 314 318 324 323 319 316 312 304 293 287 287 287 284
77 58 70 63 57 42 25 357 340 4 42 28 16 10 341 42 47 28 21 16 3 358 353 333 321 317 318 319 321 322 320 315 317 314 309 307 307 307 311 315 321 322 327 324 320 320 320 319 315 307 303 307 307 305
63 63 51 41 29 15 359 21 24 27 30 16 12 10 48 69 35 16 16 12 7 355 320 312 314 312 310 312 320 325 327 324 314 300 295 296 297 299 303 306 311 315 318 315 317 324 331 331 329 328 330 332 332 324
32 36 32 33 27 34 36 31 29 39 40 39 47 52 38 21 6 3 14 15 16 11 357 328 319 316 317 327 331 336 340 343 321 310 306 301 302 303 306 306 313 320 314 311 316 329 343 345 341 341 337 336 339 343
6 349 15 348 341 0 17 18 23 20 15 26 36 35 30 22 11 10 7 4 7 5 356 345 336 333 330 333 336 339 347 341 337 334 331 329 328 326 327 328 330 329 316 312 316 324 327 321 323 322 329 334 340 345
320 20 321 325 323 338 351 345 345 356 5 8 7 6 6 2 4 3 0 1 1 359 350 341 345 342 340 338 337 338 341 342 346 346 346 343 339 339 337 332 333 325 322 329 330 325 325 330 334 334 336 336 335 337
305 337 345 334 325 332 332 332 335 346 349 350 344 339 344 343 347 353 353 352 354 352 348 344 345 346 346 343 334 336 337 343 348 353 348 349 348 347 346 344 341 340 342 339 342 350 352 352 350 349 346 343 342 346
16 335 342 345 346 342 327 325 329 333 335 323 317 324 331 338 338 344 348 345 343 348 350 347 346 347 349 343 332 338 339 345 352 353 353 357 357 353 350 350 351 352 351 348 350 357 356 355 357 356 356 355 353 348
Height
3095 3088 3081 3074 3066 3059 3052 3045 3039 3033 3028 3023 3018 3014 3011 3007 3004 3002 3001 2997 2995 2989 2985 2983 2984 2983 2982 2982 2981 2981 2979 2977 2977 2975 2975 2975 2974 2972 2970 2970 2965 2975 2983 2988 2995 2993 2986 2981 2982 2988 2992 2997 3001 3006
3094 3088 3081 3073 3066 3060 3052 3046 3039 3033 3027 3022 3017 3012 3008 3005 3001 2998 2996 2993 2990 2985 2983 2980 2979 2978 2977 2977 2976 2976 2975 2973 2975 2972 2965 2971 2970 2968 2967 2966 2966 2972 2977 2982 2985 2986 2986 2982 2982 2983 2987 2993 2997 3003
3094 3087 3080 3073 3067 3060 3052 3045 3039 3032 3026 3020 3015 3010 3006 3002 2998 2995 2992 2989 2986 2980 2976 2974 2975 2973 2971 2971 2972 2969 2969 2970 2970 2970 2969 2966 2964 2963 2962 2960 2960 2963 2970 2972 2975 2978 2979 2978 2981 2981 2986 2991 2995 3000
3094 3087 3080 3073 3067 3060 3053 3046 3039 3032 3026 3020 3014 3009 3004 3000 2996 2992 2990 2987 2983 2978 2973 2970 2968 2965 2965 2965 2966 2965 2966 2967 2967 2967 2964 2961 2961 2958 2949 2953 2956 2960 2964 2969 2969 2975 2971 2976 2976 2979 2982 2987 2991 2995
3094 3086 3079 3072 3066 3060 3053 3046 3039 3032 3026 3019 3013 3008 3003 2998 2993 2989 2986 2984 2981 2980 2972 2964 2962 2962 2961 2961 2961 2963 2965 2965 2963 2964 2962 2959 2958 2954 2947 2950 2951 2955 2958 2962 2965 2973 2972 2971 2973 2977 2979 2983 2988 2994
3093 3086 3079 3072 3066 3059 3052 3045 3038 3031 3025 3018 3013 3007 3002 2997 2992 2988 2985 2982 2978 2974 2969 2963 2962 2961 2961 2961 2962 2961 2962 2962 2960 2960 2959 2957 2956 2955 2948 2947 2948 2951 2955 2960 2961 2965 2970 2972 2973 2976 2978 2984 2990 2994
3092 3086 3079 3073 3066 3058 3051 3044 3037 3029 3023 3017 3011 3005 3000 2995 2991 2987 2985 2980 2975 2973 2969 2962 2960 2960 2960 2960 2961 2960 2960 2959 2957 2957 2956 2954 2954 2952 2948 2947 2948 2949 2953 2958 2959 2964 2973 2978 2977 2974 2979 2985 2991 2994
3091 3085 3080 3072 3066 3058 3051 3043 3035 3029 3023 3017 3010 3003 2999 2994 2989 2984 2980 2977 2974 2970 2968 2965 2962 2960 2960 2960 2961 2959 2957 2957 2956 2955 2952 2951 2950 2947 2946 2946 2947 2948 2952 2956 2961 2968 2975 2978 2980 2982 2984 2990 2991 2991
3089 3084 3078 3072 3064 3057 3050 3044 3036 3030 3023 3017 3009 3004 2999 2992 2985 2982 2978 2975 2972 2972 2968 2964 2960 2958 2956 2956 2957 2956 2955 2955 2953 2951 2950 2949 2947 2947 2947 2944 2944 2946 2951 2955 2962 2966 2969 2976 2982 2985 2987 2986 2987 2989
3087 3082 3076 3070 3063 3056 3049 3043 3037 3031 3024 3019 3012 3002 2996 2991 2984 2978 2976 2974 2971 2968 2964 2961 2958 2956 2955 2953 2955 2955 2952 2952 2950 2949 2948 2947 2947 2946 2943 2941 2938 2945 2950 2956 2960 2964 2973 2978 2982 2983 2986 2980 2986 2989
3085 3080 3074 3068 3062 3056 3049 3044 3037 3030 3026 3021 3010 3002 2997 2989 2983 2979 2977 2976 2972 2968 2964 2960 2957 2954 2955 2954 2953 2953 2951 2951 2950 2952 2951 2951 2950 2948 2945 2946 2942 2946 2953 2958 2963 2968 2970 2975 2978 2981 2980 2985 2989 2991
3081 3077 3072 3067 3061 3055 3050 3045 3039 3032 3027 3022 3012 3005 2998 2991 2988 2986 2983 2978 2971 2966 2960 2960 2958 2955 2954 2955 2954 2954 2952 2953 2954 2956 2956 2956 2955 2954 2952 2953 2954 2955 2958 2959 2966 2970 2972 2974 2977 2979 2986 2987 2990 2990
3078 3074 3069 3065 3060 3055 3050 3045 3040 3035 3030 3023 3015 3008 3003 3004 3000 2990 2987 2984 2979 2973 2968 2965 2961 2959 2958 2957 2956 2955 2957 2960 2962 2962 2964 2965 2962 2960 2960 2961 2963 2964 2967 2971 2974 2976 2978 2979 2982 2986 2989 2992 2993 2992
3074 3070 3067 3063 3060 3055 3050 3046 3042 3037 3030 3024 3020 3018 3018 3015 3011 3003 2998 2991 2986 2978 2975 2970 2966 2964 2963 2963 2963 2966 2969 2969 2971 2971 2973 2974 2974 2971 2970 2971 2970 2973 2975 2976 2977 2982 2985 2987 2990 2992 2994 2993 2993 2991
3072 3068 3065 3063 3060 3056 3053 3050 3045 3040 3033 3030 3029 3029 3027 3025 3020 3012 3005 2995 2987 2983 2979 2975 2973 2971 2968 2971 2974 2976 2977 2979 2981 2981 2982 2983 2983 2980 2980 2979 2979 2982 2984 2985 2984 2989 2991 2993 2994 2994 2995 2994 2995 2997
3072 3068 3066 3063 3060 3056 3054 3053 3049 3045 3040 3038 3039 3039 3036 3028 3021 3014 3009 3001 2994 2989 2984 2981 2980 2981 2982 2984 2986 2987 2988 2991 2992 2991 2991 2992 2989 2989 2990 2991 2992 2993 2993 2994 2996 2996 2997 2996 2997 2996 2997 2999 2998 2996
3073 3069 3066 3063 3061 3058 3057 3055 3050 3049 3049 3050 3047 3043 3039 3034 3029 3022 3017 3013 3006 2997 2988 2988 2990 2996 2997 3000 2999 2999 3001 3002 3002 2999 3000 2998 3001 3000 3001 3001 3001 3001 3000 3000 3001 3001 3001 3001 3002 3001 3001 3001 3000 2999
3075 3070 3067 3065 3063 3061 3061 3058 3055 3057 3056 3054 3049 3047 3043 3040 3037 3032 3027 3022 3016 3008 3002 3000 3005 3007 3010 3012 3013 3012 3012 3011 3010 3009 3007 3007 3008 3008 3008 3008 3006 3004 3006 3007 3008 3007 3006 3007 3006 3004 3004 3003 3002 3002
3079 3074 3070 3067 3065 3065 3062 3062 3061 3062 3061 3059 3058 3054 3049 3047 3044 3041 3037 3033 3027 3022 3012 3011 3017 3021 3023 3024 3023 3022 3022 3021 3019 3019 3017 3015 3015 3015 3014 3013 3013 3012 3012 3012 3012 3011 3009 3009 3008 3006 3006 3006 3005 3004
3084 3079 3076 3074 3072 3069 3067 3068 3067 3067 3065 3065 3064 3060 3055 3053 3050 3046 3042 3039 3035 3028 3024 3026 3032 3035 3034 3033 3031 3029 3028 3027 3025 3023 3023 3022 3022 3021 3021 3020 3017 3016 3015 3015 3014 3014 3012 3011 3009 3007 3005 3003 3004 3002
3089 3086 3083 3081 3078 3074 3075 3074 3073 3072 3070 3068 3067 3065 3062 3059 3054 3050 3047 3046 3040 3038 3039 3042 3042 3043 3041 3039 3038 3035 3033 3032 3030 3029 3026 3025 3025 3022 3019 3018 3018 3016 3015 3015 3015 3015 3013 3011 3010 3009 3006 3002 3002 3001
3093 3091 3089 3087 3083 3080 3080 3080 3079 3077 3075 3073 3071 3069 3066 3063 3060 3057 3055 3050 3047 3049 3049 3049 3047 3046 3045 3043 3041 3038 3036 3034 3032 3030 3029 3029 3028 3025 3022 3021 3019 3018 3017 3016 3015 3014 3013 3011 3010 3009 3005 3001 2998 2997
3093 3092 3089 3088 3086 3085 3086 3082 3081 3078 3077 3074 3071 3070 3069 3066 3065 3063 3058 3058 3057 3056 3055 3053 3050 3048 3046 3044 3043 3040 3037 3035 3033 3029 3027 3026 3026 3024 3021 3020 3019 3017 3014 3011 3011 3012 3012 3010 3006 3005 3003 2998 2993 2991
3092 3090 3089 3088 3088 3087 3086 3083 3081 3079 3078 3072 3065 3069 3069 3067 3066 3065 3064 3062 3060 3058 3056 3052 3050 3047 3044 3041 3041 3040 3037 3034 3031 3028 3024 3023 3023 3023 3022 3019 3016 3014 3012 3009 3006 3006 3006 3004 2999 2994 2994 2994 2990 2986
3093 3092 3092 3089 3088 3087 3085 3085 3083 3081 3079 3076 3074 3072 3070 3069 3069 3068 3066 3063 3060 3057 3054 3051 3050 3046 3044 3041 3042 3039 3034 3031 3028 3026 3024 3021 3018 3017 3017 3014 3010 3007 3005 3003 3000 2996 2994 2993 2991 2987 2984 2985 2984 2980
3092 3092 3092 3091 3089 3089 3088 3086 3085 3083 3081 3078 3076 3074 3073 3071 3071 3070 3067 3064 3061 3058 3055 3052 3049 3046 3042 3040 3040 3037 3032 3027 3023 3021 3019 3018 3015 3010 3009 3010 3007 3003 2999 2996 2992 2989 2987 2984 2983 2980 2978 2976 2976 2975
3095 3095 3094 3093 3091 3090 3089 3088 3086 3083 3080 3078 3077 3075 3074 3072 3072 3071 3067 3064 3061 3058 3055 3050 3047 3044 3041 3038 3036 3034 3030 3025 3019 3014 3013 3012 3011 3008 3005 3002 2999 2997 2994 2990 2987 2984 2982 2979 2977 2975 2973 2972 2971 2968
3099 3097 3096 3095 3093 3092 3090 3088 3085 3082 3080 3078 3076 3075 3074 3073 3073 3071 3067 3063 3060 3058 3054 3049 3046 3041 3037 3034 3032 3029 3026 3023 3018 3012 3007 3005 3004 3002 3000 2997 2994 2991 2988 2985 2983 2980 2978 2976 2974 2972 2970 2969 2967 2965
3099 3098 3097 3095 3095 3093 3091 3088 3086 3084 3082 3079 3077 3076 3075 3074 3072 3069 3065 3062 3060 3058 3053 3048 3043 3039 3033 3030 3027 3025 3022 3018 3014 3010 3006 3002 3000 2998 2995 2993 2991 2988 2985 2981 2979 2977 2976 2974 2972 2970 2968 2966 2965 2963
3100 3098 3097 3095 3095 3094 3092 3090 3087 3085 3083 3081 3079 3076 3075 3073 3071 3066 3063 3061 3057 3053 3049 3043 3039 3035 3031 3026 3023 3020 3017 3013 3009 3006 3002 2999 2996 2993 2991 2989 2987 2985 2983 2980 2978 2976 2975 2972 2970 2968 2967 2965 2964 2962
3098 3098 3097 3096 3093 3092 3090 3088 3086 3084 3081 3078 3076 3075 3072 3069 3066 3064 3061 3058 3054 3051 3046 3040 3036 3031 3027 3024 3019 3014 3011 3008 3005 3001 2998 2996 2993 2990 2988 2986 2984 2982 2980 2978 2976 2974 2972 2970 2969 2967 2965 2964 2962 2960
3100 3099 3098 3095 3092 3090 3087 3086 3083 3081 3078 3076 3075 3072 3071 3069 3066 3063 3059 3055 3052 3048 3042 3037 3033 3028 3024 3019 3016 3013 3009 3006 3002 3000 2996 2993 2991 2988 2986 2983 2981 2980 2978 2976 2975 2973 2971 2969 2967 2965 2963 2961 2960 2958
3099 3098 3096 3095 3092 3089 3088 3085 3082 3080 3079 3078 3075 3073 3070 3067 3064 3061 3057 3053 3050 3046 3041 3036 3031 3026 3022 3018 3013 3010 3006 3003 3001 2998 2995 2992 2989 2986 2984 2982 2980 2978 2977 2975 2973 2972 2970 2968 2966 2964 2962 2960 2958 2956